SAS2651 EKCH-LIMJ

Flight info

Callsign SAS2651
Flight time 1h 59m
Altitude 38000
Route NEXEN T503 GIMRU DCT MICOS DCT OTMON DCT BOMBI DCT GIGET DCT ABUKA DCT KRH DCT NATOR/N0433F390 DCT TRA DCT RIPUS DCT GERSA DCT SOSON DCT ODINA/N0321F190 M727 SRN M858 VOG
Aircraft A21N/M-SDE2E3FGHIRWXY/LB1

Departure

Time 2026-04-21 19:27
Airport Copenhagen Kastrup Airport (EKCH)

Arrival

Time 2026-04-21 21:26
Airport Genoa Cristoforo Colombo Airport (LIMJ)
Time Latitude Longitude Altitude Speed Heading
2026-04-21 18:42 55.62643 12.64572 29 ft 0 kts 281°
2026-04-21 19:15 55.62643 12.64575 29 ft 2 kts 281°
2026-04-21 19:15 55.62638 12.64618 29 ft 2 kts 282°
2026-04-21 19:15 55.62635 12.64639 29 ft 1 kts 274°
2026-04-21 19:16 55.62636 12.64663 29 ft 4 kts 210°
2026-04-21 19:16 55.62657 12.64673 29 ft 4 kts 192°
2026-04-21 19:16 55.62659 12.64674 29 ft 1 kts 192°
2026-04-21 19:20 55.62650 12.64671 29 ft 4 kts 192°
2026-04-21 19:21 55.62609 12.64656 29 ft 8 kts 191°
2026-04-21 19:21 55.62547 12.64655 29 ft 10 kts 179°
2026-04-21 19:21 55.62468 12.64659 29 ft 13 kts 166°
2026-04-21 19:21 55.62415 12.64692 29 ft 0 kts 165°
2026-04-21 19:22 55.62381 12.64690 29 ft 8 kts 191°
2026-04-21 19:22 55.62317 12.64658 29 ft 11 kts 221°
2026-04-21 19:22 55.62277 12.64532 28 ft 13 kts 248°
2026-04-21 19:22 55.62234 12.64390 24 ft 14 kts 222°
2026-04-21 19:23 55.62166 12.64312 27 ft 0 kts 199°
2026-04-21 19:23 55.62150 12.64301 28 ft 5 kts 204°
2026-04-21 19:23 55.62092 12.64254 29 ft 21 kts 206°
2026-04-21 19:23 55.61996 12.64172 29 ft 12 kts 205°
2026-04-21 19:24 55.61916 12.64104 29 ft 14 kts 205°
2026-04-21 19:24 55.61829 12.64008 29 ft 16 kts 223°
2026-04-21 19:24 55.61724 12.63942 29 ft 18 kts 165°
2026-04-21 19:24 55.61677 12.63954 29 ft 0 kts 175°
2026-04-21 19:25 55.61669 12.63955 29 ft 2 kts 175°
2026-04-21 19:25 55.61647 12.63959 29 ft 4 kts 175°
2026-04-21 19:25 55.61600 12.63965 28 ft 17 kts 175°
2026-04-21 19:26 55.61542 12.63954 28 ft 11 kts 196°
2026-04-21 19:26 55.61469 12.63853 28 ft 13 kts 236°
2026-04-21 19:26 55.61423 12.63764 27 ft 6 kts 219°
2026-04-21 19:26 55.61385 12.63702 27 ft 9 kts 223°
2026-04-21 19:27 55.61114 12.63285 29 ft 104 kts 221°
2026-04-21 19:27 55.60350 12.62077 86 ft 182 kts 222°
2026-04-21 19:27 55.59341 12.60516 932 ft 201 kts 222°
2026-04-21 19:27 55.58258 12.58864 2093 ft 211 kts 223°
2026-04-21 19:28 55.57110 12.57105 2901 ft 230 kts 223°
2026-04-21 19:28 55.55784 12.55231 3480 ft 258 kts 214°
2026-04-21 19:28 55.54238 12.53480 4332 ft 268 kts 214°
2026-04-21 19:28 55.52676 12.51588 5316 ft 275 kts 214°
2026-04-21 19:29 55.51093 12.49653 6332 ft 279 kts 214°
2026-04-21 19:29 55.49487 12.47690 7382 ft 282 kts 214°
2026-04-21 19:29 55.47858 12.45696 8400 ft 287 kts 214°
2026-04-21 19:29 55.46204 12.43673 9422 ft 293 kts 213°
2026-04-21 19:30 55.44527 12.41572 10429 ft 299 kts 214°
2026-04-21 19:30 55.42794 12.39355 11087 ft 318 kts 215°
2026-04-21 19:30 55.40941 12.36980 11666 ft 336 kts 214°
2026-04-21 19:30 55.39028 12.34534 12561 ft 343 kts 214°
2026-04-21 19:31 55.37083 12.32055 13542 ft 348 kts 214°
2026-04-21 19:31 55.35103 12.29535 14475 ft 353 kts 214°
2026-04-21 19:31 55.33099 12.26982 15336 ft 358 kts 214°
2026-04-21 19:31 55.31061 12.24386 16187 ft 364 kts 214°
2026-04-21 19:32 55.29027 12.21796 17018 ft 369 kts 214°
2026-04-21 19:32 55.26932 12.19132 17852 ft 374 kts 214°
2026-04-21 19:32 55.24806 12.16435 18682 ft 380 kts 214°
2026-04-21 19:32 55.22645 12.13706 19402 ft 385 kts 213°
2026-04-21 19:33 55.21195 12.11874 19853 ft 389 kts 213°
2026-04-21 19:33 55.18222 12.08121 20781 ft 396 kts 213°
2026-04-21 19:33 55.15966 12.05285 21455 ft 402 kts 213°
2026-04-21 19:33 55.13685 12.02418 22120 ft 407 kts 213°
2026-04-21 19:34 55.11364 11.99505 22779 ft 413 kts 213°
2026-04-21 19:34 55.09020 11.96570 23423 ft 418 kts 212°
2026-04-21 19:34 55.06668 11.93623 24038 ft 423 kts 212°
2026-04-21 19:34 55.04266 11.90620 24597 ft 427 kts 212°
2026-04-21 19:35 55.01837 11.87590 25164 ft 431 kts 212°
2026-04-21 19:35 54.96917 11.81457 26283 ft 438 kts 212°
2026-04-21 19:35 54.94425 11.78354 26823 ft 442 kts 212°
2026-04-21 19:36 54.91916 11.75230 27358 ft 445 kts 212°
2026-04-21 19:36 54.89387 11.72090 27870 ft 449 kts 212°
2026-04-21 19:36 54.86843 11.68943 28362 ft 452 kts 212°
2026-04-21 19:36 54.84274 11.65772 28859 ft 455 kts 212°
2026-04-21 19:37 54.81677 11.62575 29332 ft 459 kts 212°
2026-04-21 19:37 54.79057 11.59352 29803 ft 462 kts 212°
2026-04-21 19:37 54.76434 11.56126 30267 ft 465 kts 212°
2026-04-21 19:37 54.73786 11.52872 30670 ft 468 kts 212°
2026-04-21 19:38 54.71118 11.49604 31079 ft 470 kts 212°
2026-04-21 19:38 54.68447 11.46334 31500 ft 472 kts 212°
2026-04-21 19:38 54.66663 11.44158 31765 ft 473 kts 212°
2026-04-21 19:38 54.63098 11.39808 32326 ft 475 kts 213°
2026-04-21 19:39 54.60379 11.36491 32728 ft 477 kts 213°
2026-04-21 19:39 54.57659 11.33193 33114 ft 479 kts 213°
2026-04-21 19:39 54.54939 11.29892 33595 ft 477 kts 213°
2026-04-21 19:39 54.52230 11.26614 34151 ft 474 kts 213°
2026-04-21 19:40 54.49539 11.23361 34588 ft 472 kts 213°
2026-04-21 19:40 54.46851 11.20112 34920 ft 472 kts 213°
2026-04-21 19:40 54.44153 11.16860 35285 ft 471 kts 213°
2026-04-21 19:40 54.41470 11.13628 35623 ft 471 kts 213°
2026-04-21 19:41 54.38791 11.10413 35933 ft 470 kts 213°
2026-04-21 19:41 54.36106 11.07202 36251 ft 470 kts 214°
2026-04-21 19:41 54.33427 11.03993 36565 ft 470 kts 214°
2026-04-21 19:41 54.30720 11.00988 36872 ft 468 kts 207°
2026-04-21 19:42 54.27744 10.98767 37152 ft 466 kts 198°
2026-04-21 19:42 54.24682 10.96945 37441 ft 466 kts 197°
2026-04-21 19:42 54.21612 10.95186 37708 ft 466 kts 197°
2026-04-21 19:42 54.18542 10.93414 37984 ft 466 kts 197°
2026-04-21 19:43 54.15458 10.91615 38251 ft 465 kts 198°
2026-04-21 19:43 54.12396 10.89818 38438 ft 465 kts 198°
2026-04-21 19:43 54.09330 10.88015 38447 ft 464 kts 198°
2026-04-21 19:44 54.03231 10.84436 38416 ft 464 kts 198°
2026-04-21 19:44 53.97160 10.80889 38407 ft 464 kts 198°
2026-04-21 19:45 53.91050 10.77335 38411 ft 464 kts 198°
2026-04-21 19:45 53.84945 10.73787 38407 ft 464 kts 198°
2026-04-21 19:46 53.78825 10.70243 38409 ft 464 kts 198°
2026-04-21 19:46 53.72710 10.66716 38406 ft 464 kts 198°
2026-04-21 19:47 53.66599 10.63200 38402 ft 464 kts 198°
2026-04-21 19:47 53.60489 10.59696 38403 ft 464 kts 198°
2026-04-21 19:48 53.54379 10.56202 38393 ft 464 kts 197°
2026-04-21 19:48 53.48273 10.52721 38388 ft 463 kts 198°
2026-04-21 19:49 53.42170 10.49250 38380 ft 463 kts 198°
2026-04-21 19:49 53.36066 10.45792 38375 ft 463 kts 198°
2026-04-21 19:50 53.31004 10.42934 38376 ft 463 kts 198°
2026-04-21 19:50 53.24902 10.39500 38375 ft 463 kts 197°
2026-04-21 19:51 53.17812 10.35523 38375 ft 462 kts 198°
2026-04-21 19:51 53.12709 10.32664 38373 ft 462 kts 197°
2026-04-21 19:52 53.06610 10.29258 38377 ft 462 kts 198°
2026-04-21 19:52 53.00519 10.25868 38376 ft 462 kts 198°
2026-04-21 19:53 52.94418 10.22485 38380 ft 462 kts 198°
2026-04-21 19:53 52.88361 10.19124 38376 ft 462 kts 198°
2026-04-21 19:54 52.82248 10.15746 38379 ft 462 kts 198°
2026-04-21 19:54 52.76144 10.12402 38372 ft 462 kts 197°
2026-04-21 19:55 52.70035 10.09051 38352 ft 463 kts 198°
2026-04-21 19:55 52.63911 10.05712 38347 ft 463 kts 197°
2026-04-21 19:56 52.57836 10.02395 38352 ft 463 kts 198°
2026-04-21 19:56 52.51722 9.99057 38351 ft 463 kts 198°
2026-04-21 19:57 52.45620 9.95743 38347 ft 463 kts 198°
2026-04-21 19:57 52.39490 9.92438 38345 ft 463 kts 198°
2026-04-21 19:58 52.33372 9.89144 38346 ft 462 kts 198°
2026-04-21 19:58 52.27262 9.85860 38342 ft 462 kts 198°
2026-04-21 19:59 52.21158 9.82593 38337 ft 463 kts 197°
2026-04-21 19:59 52.15034 9.79325 38334 ft 462 kts 198°
2026-04-21 20:00 52.08916 9.76056 38331 ft 463 kts 198°
2026-04-21 20:00 52.02802 9.72799 38327 ft 463 kts 198°
2026-04-21 20:01 51.96714 9.69582 38324 ft 463 kts 197°
2026-04-21 20:01 51.90585 9.66347 38330 ft 463 kts 198°
2026-04-21 20:02 51.84472 9.63129 38326 ft 463 kts 198°
2026-04-21 20:02 51.78349 9.59900 38329 ft 463 kts 198°
2026-04-21 20:03 51.72227 9.56692 38455 ft 463 kts 198°
2026-04-21 20:03 51.69158 9.55086 38704 ft 463 kts 198°
2026-04-21 20:03 51.66090 9.53489 38939 ft 465 kts 198°
2026-04-21 20:03 51.63005 9.51883 39130 ft 466 kts 198°
2026-04-21 20:04 51.59911 9.50275 39315 ft 468 kts 198°
2026-04-21 20:04 51.53694 9.47047 39350 ft 469 kts 198°
2026-04-21 20:05 51.47483 9.43830 39335 ft 469 kts 198°
2026-04-21 20:05 51.41287 9.40630 39325 ft 469 kts 198°
2026-04-21 20:06 51.35072 9.37430 39320 ft 469 kts 198°
2026-04-21 20:06 51.28896 9.34292 39318 ft 469 kts 197°
2026-04-21 20:07 51.22619 9.31443 39321 ft 469 kts 196°
2026-04-21 20:07 51.16338 9.28629 39320 ft 469 kts 196°
2026-04-21 20:08 51.10050 9.25807 39319 ft 470 kts 196°
2026-04-21 20:08 51.03771 9.22995 39321 ft 469 kts 196°
2026-04-21 20:09 50.97471 9.20171 39313 ft 470 kts 196°
2026-04-21 20:09 50.91160 9.17365 39313 ft 470 kts 196°
2026-04-21 20:10 50.84861 9.14568 39307 ft 470 kts 196°
2026-04-21 20:10 50.78555 9.11771 39299 ft 470 kts 196°
2026-04-21 20:11 50.72287 9.09006 39298 ft 470 kts 196°
2026-04-21 20:11 50.65992 9.06225 39289 ft 470 kts 196°
2026-04-21 20:12 50.59684 9.03453 39291 ft 469 kts 196°
2026-04-21 20:12 50.53399 9.00706 39285 ft 469 kts 197°
2026-04-21 20:13 50.47111 8.97960 39283 ft 469 kts 197°
2026-04-21 20:13 50.40820 8.95214 39282 ft 468 kts 197°
2026-04-21 20:14 50.34545 8.92495 39272 ft 467 kts 197°
2026-04-21 20:14 50.28959 8.90079 39266 ft 468 kts 197°
2026-04-21 20:15 50.22695 8.87360 39267 ft 467 kts 197°
2026-04-21 20:15 50.16429 8.84657 39278 ft 467 kts 197°
2026-04-21 20:16 50.10160 8.81979 39281 ft 467 kts 197°
2026-04-21 20:16 50.03859 8.79640 39280 ft 468 kts 189°
2026-04-21 20:17 49.97388 8.78289 39289 ft 469 kts 189°
2026-04-21 20:17 49.90919 8.76969 39276 ft 469 kts 189°
2026-04-21 20:18 49.85527 8.75853 39268 ft 470 kts 189°
2026-04-21 20:18 49.77953 8.74287 39258 ft 470 kts 189°
2026-04-21 20:19 49.71451 8.72947 39243 ft 471 kts 189°
2026-04-21 20:19 49.64956 8.71624 39246 ft 471 kts 189°
2026-04-21 20:20 49.58503 8.70327 39251 ft 471 kts 189°
2026-04-21 20:20 49.51997 8.69021 39256 ft 471 kts 189°
2026-04-21 20:21 49.45498 8.67715 39253 ft 471 kts 189°
2026-04-21 20:21 49.39018 8.66400 39255 ft 471 kts 189°
2026-04-21 20:22 49.32518 8.65088 39246 ft 470 kts 189°
2026-04-21 20:22 49.22774 8.63123 39231 ft 470 kts 189°
2026-04-21 20:23 49.16278 8.61820 39218 ft 470 kts 189°
2026-04-21 20:23 49.09784 8.60521 39205 ft 471 kts 189°
2026-04-21 20:24 49.03301 8.59226 39199 ft 470 kts 190°
2026-04-21 20:24 48.96881 8.57657 39200 ft 469 kts 194°
2026-04-21 20:25 48.90502 8.55589 39206 ft 468 kts 195°
2026-04-21 20:25 48.84123 8.53515 39208 ft 468 kts 195°
2026-04-21 20:26 48.77755 8.51460 39194 ft 468 kts 195°
2026-04-21 20:26 48.71389 8.49413 39197 ft 467 kts 195°
2026-04-21 20:27 48.65022 8.47372 39201 ft 467 kts 195°
2026-04-21 20:27 48.58704 8.45350 39204 ft 467 kts 195°
2026-04-21 20:28 48.52354 8.43321 39187 ft 467 kts 195°
2026-04-21 20:28 48.45986 8.41296 39195 ft 467 kts 195°
2026-04-21 20:29 48.39635 8.39284 39191 ft 466 kts 195°
2026-04-21 20:29 48.33287 8.37271 39198 ft 466 kts 195°
2026-04-21 20:30 48.26942 8.35265 39194 ft 466 kts 195°
2026-04-21 20:30 48.20609 8.33276 39188 ft 466 kts 195°
2026-04-21 20:31 48.14081 8.32714 39182 ft 476 kts 175°
2026-04-21 20:31 48.07531 8.34341 39188 ft 477 kts 173°
2026-04-21 20:32 48.00989 8.36002 39180 ft 477 kts 174°
2026-04-21 20:32 47.94434 8.37585 39180 ft 477 kts 174°
2026-04-21 20:33 47.90085 8.38631 39175 ft 477 kts 174°
2026-04-21 20:33 47.83358 8.40248 39179 ft 477 kts 174°
2026-04-21 20:34 47.76796 8.41820 39171 ft 477 kts 174°
2026-04-21 20:34 47.70333 8.43361 39171 ft 477 kts 174°
2026-04-21 20:35 47.64835 8.44318 39163 ft 475 kts 178°
2026-04-21 20:35 47.57137 8.45436 39163 ft 475 kts 178°
2026-04-21 20:36 47.51674 8.46235 39169 ft 475 kts 178°
2026-04-21 20:36 47.45085 8.47204 39169 ft 476 kts 178°
2026-04-21 20:37 47.38484 8.48171 39160 ft 476 kts 178°
2026-04-21 20:37 47.31881 8.49134 39162 ft 477 kts 178°
2026-04-21 20:38 47.25313 8.50093 39152 ft 476 kts 178°
2026-04-21 20:38 47.18705 8.51057 39115 ft 477 kts 178°
2026-04-21 20:39 47.12096 8.52018 39114 ft 477 kts 178°
2026-04-21 20:39 47.05470 8.52981 39112 ft 477 kts 178°
2026-04-21 20:40 46.98966 8.53920 39115 ft 477 kts 178°
2026-04-21 20:40 46.92350 8.54887 39111 ft 477 kts 178°
2026-04-21 20:41 46.85778 8.55840 39108 ft 477 kts 178°
2026-04-21 20:41 46.79183 8.56788 39103 ft 476 kts 178°
2026-04-21 20:42 46.72586 8.57716 39092 ft 476 kts 179°
2026-04-21 20:42 46.66011 8.58645 39067 ft 474 kts 178°
2026-04-21 20:43 46.59437 8.59581 39073 ft 475 kts 179°
2026-04-21 20:43 46.52871 8.60515 39029 ft 472 kts 179°
2026-04-21 20:44 46.46306 8.61446 39026 ft 474 kts 179°
2026-04-21 20:44 46.43051 8.61908 38834 ft 467 kts 179°
2026-04-21 20:44 46.39812 8.62364 38291 ft 467 kts 179°
2026-04-21 20:45 46.36580 8.62817 37647 ft 468 kts 179°
2026-04-21 20:45 46.33333 8.63275 37037 ft 469 kts 180°
2026-04-21 20:45 46.30073 8.63732 36445 ft 470 kts 180°
2026-04-21 20:45 46.26819 8.64185 35868 ft 469 kts 181°
2026-04-21 20:46 46.23579 8.64642 35353 ft 468 kts 181°
2026-04-21 20:46 46.20338 8.65098 34820 ft 467 kts 181°
2026-04-21 20:46 46.17106 8.65553 34263 ft 465 kts 182°
2026-04-21 20:46 46.13926 8.65997 33724 ft 464 kts 182°
2026-04-21 20:47 46.10775 8.66661 33064 ft 471 kts 172°
2026-04-21 20:47 46.07700 8.68351 32542 ft 476 kts 158°
2026-04-21 20:47 46.04787 8.70636 32025 ft 476 kts 155°
2026-04-21 20:47 46.01917 8.73021 31468 ft 475 kts 155°
2026-04-21 20:48 45.99033 8.75375 30911 ft 474 kts 156°
2026-04-21 20:48 45.97124 8.76899 30556 ft 474 kts 156°
2026-04-21 20:48 45.94250 8.79157 30034 ft 473 kts 157°
2026-04-21 20:48 45.91367 8.81404 29395 ft 472 kts 157°
2026-04-21 20:49 45.88488 8.83645 28795 ft 469 kts 157°
2026-04-21 20:49 45.85631 8.85864 28221 ft 464 kts 157°
2026-04-21 20:49 45.82803 8.88060 27683 ft 460 kts 157°
2026-04-21 20:49 45.80006 8.90230 27159 ft 455 kts 157°
2026-04-21 20:50 45.77232 8.92378 26616 ft 452 kts 157°
2026-04-21 20:50 45.74474 8.94515 26071 ft 449 kts 157°
2026-04-21 20:50 45.71736 8.96634 25564 ft 445 kts 157°
2026-04-21 20:50 45.69062 8.98699 25135 ft 440 kts 157°
2026-04-21 20:51 45.66405 9.00740 24978 ft 428 kts 159°
2026-04-21 20:51 45.63674 9.02181 24960 ft 411 kts 178°
2026-04-21 20:51 45.60889 9.02410 24987 ft 393 kts 194°
2026-04-21 20:51 45.58178 9.02033 25008 ft 390 kts 197°
2026-04-21 20:52 45.55472 9.01631 25003 ft 391 kts 196°
2026-04-21 20:52 45.52754 9.01315 25002 ft 393 kts 194°
2026-04-21 20:52 45.50007 9.01062 25005 ft 394 kts 194°
2026-04-21 20:52 45.47330 9.00856 24992 ft 377 kts 193°
2026-04-21 20:53 45.44746 9.00668 24989 ft 367 kts 194°
2026-04-21 20:53 45.42205 9.00471 24991 ft 366 kts 194°
2026-04-21 20:53 45.39661 9.00273 24999 ft 366 kts 194°
2026-04-21 20:53 45.37116 9.00076 24999 ft 366 kts 194°
2026-04-21 20:54 45.34573 8.99882 24995 ft 366 kts 194°
2026-04-21 20:54 45.32035 8.99688 24994 ft 365 kts 193°
2026-04-21 20:54 45.29494 8.99496 24989 ft 365 kts 193°
2026-04-21 20:54 45.26988 8.99307 24974 ft 365 kts 193°
2026-04-21 20:55 45.24454 8.99117 24970 ft 365 kts 193°
2026-04-21 20:55 45.21918 8.98925 24964 ft 364 kts 193°
2026-04-21 20:55 45.19384 8.98734 24966 ft 364 kts 193°
2026-04-21 20:55 45.16852 8.98543 24968 ft 364 kts 193°
2026-04-21 20:56 45.14315 8.98353 24965 ft 364 kts 193°
2026-04-21 20:56 45.11771 8.98313 24958 ft 370 kts 186°
2026-04-21 20:56 45.09185 8.98590 24962 ft 370 kts 184°
2026-04-21 20:56 45.06648 8.98915 24636 ft 365 kts 184°
2026-04-21 20:57 45.04111 8.99223 24169 ft 365 kts 184°
2026-04-21 20:57 45.01578 8.99515 23739 ft 364 kts 184°
2026-04-21 20:57 44.99096 8.99793 23318 ft 362 kts 184°
2026-04-21 20:57 44.96560 9.00073 22883 ft 358 kts 184°
2026-04-21 20:58 44.94118 9.00344 22462 ft 355 kts 184°
2026-04-21 20:58 44.91661 9.00615 22062 ft 352 kts 184°
2026-04-21 20:58 44.89239 9.00881 21672 ft 349 kts 184°
2026-04-21 20:58 44.86828 9.01143 21289 ft 346 kts 184°
2026-04-21 20:59 44.84437 9.01407 20894 ft 343 kts 184°
2026-04-21 20:59 44.82066 9.01666 20510 ft 340 kts 185°
2026-04-21 20:59 44.79713 9.01920 20135 ft 337 kts 185°
2026-04-21 20:59 44.77379 9.02173 19748 ft 335 kts 185°
2026-04-21 21:00 44.75058 9.02425 19377 ft 333 kts 184°
2026-04-21 21:00 44.72906 9.02659 18996 ft 330 kts 184°
2026-04-21 21:00 44.70698 9.02900 18660 ft 329 kts 184°
2026-04-21 21:00 44.68450 9.03145 18306 ft 327 kts 184°
2026-04-21 21:01 44.66192 9.03392 17892 ft 324 kts 184°
2026-04-21 21:01 44.63959 9.03534 17452 ft 314 kts 195°
2026-04-21 21:01 44.62002 9.02593 17046 ft 287 kts 224°
2026-04-21 21:01 44.60715 9.00628 16666 ft 267 kts 248°
2026-04-21 21:02 44.60073 8.98257 16395 ft 257 kts 265°
2026-04-21 21:02 44.60037 8.95797 16246 ft 252 kts 282°
2026-04-21 21:02 44.60569 8.93475 16165 ft 250 kts 298°
2026-04-21 21:02 44.61607 8.91526 16105 ft 252 kts 314°
2026-04-21 21:03 44.63070 8.90145 16038 ft 258 kts 332°
2026-04-21 21:03 44.64836 8.89514 15999 ft 267 kts 347°
2026-04-21 21:03 44.66700 8.89360 15951 ft 268 kts 351°
2026-04-21 21:03 44.68567 8.89280 15881 ft 269 kts 351°
2026-04-21 21:04 44.70432 8.89185 15825 ft 268 kts 350°
2026-04-21 21:04 44.72303 8.89052 15770 ft 269 kts 350°
2026-04-21 21:04 44.74162 8.88894 15716 ft 268 kts 349°
2026-04-21 21:04 44.76025 8.88727 15648 ft 269 kts 351°
2026-04-21 21:05 44.77908 8.88984 15586 ft 280 kts
2026-04-21 21:05 44.79646 8.90257 15453 ft 286 kts 33°
2026-04-21 21:05 44.80875 8.92472 15221 ft 293 kts 60°
2026-04-21 21:05 44.81347 8.95234 14995 ft 299 kts 86°
2026-04-21 21:06 44.80996 8.98121 14929 ft 302 kts 112°
2026-04-21 21:06 44.79840 9.00573 14941 ft 301 kts 139°
2026-04-21 21:06 44.78125 9.02150 14954 ft 293 kts 165°
2026-04-21 21:06 44.76113 9.02748 14995 ft 307 kts 180°
2026-04-21 21:07 44.73997 9.02954 14553 ft 306 kts 183°
2026-04-21 21:07 44.71912 9.03077 14081 ft 310 kts 183°
2026-04-21 21:07 44.69746 9.03202 13717 ft 313 kts 182°
2026-04-21 21:07 44.67559 9.03337 13333 ft 314 kts 182°
2026-04-21 21:08 44.65379 9.03510 12984 ft 314 kts 179°
2026-04-21 21:08 44.63208 9.03916 12663 ft 314 kts 175°
2026-04-21 21:08 44.61051 9.04373 12333 ft 314 kts 175°
2026-04-21 21:08 44.58887 9.04832 12009 ft 314 kts 175°
2026-04-21 21:09 44.56729 9.05282 11676 ft 315 kts 175°
2026-04-21 21:09 44.54556 9.05729 11340 ft 315 kts 175°
2026-04-21 21:09 44.52384 9.06174 11008 ft 316 kts 175°
2026-04-21 21:09 44.50212 9.06619 10684 ft 316 kts 174°
2026-04-21 21:10 44.48039 9.07064 10324 ft 314 kts 174°
2026-04-21 21:10 44.45893 9.07503 10006 ft 309 kts 174°
2026-04-21 21:10 44.43797 9.07932 9690 ft 298 kts 174°
2026-04-21 21:10 44.41761 9.08147 9367 ft 290 kts 185°
2026-04-21 21:11 44.39759 9.07925 9048 ft 288 kts 188°
2026-04-21 21:11 44.37785 9.07642 8943 ft 290 kts 188°
2026-04-21 21:11 44.35780 9.07356 8932 ft 290 kts 188°
2026-04-21 21:11 44.33776 9.07077 8895 ft 284 kts 188°
2026-04-21 21:12 44.31844 9.06815 8618 ft 273 kts 188°
2026-04-21 21:12 44.29978 9.06604 8291 ft 267 kts 182°
2026-04-21 21:12 44.28166 9.07143 7786 ft 270 kts 153°
2026-04-21 21:12 44.26619 9.08614 7351 ft 269 kts 142°
2026-04-21 21:13 44.25168 9.10225 7021 ft 263 kts 142°
2026-04-21 21:13 44.23763 9.11769 6906 ft 249 kts 142°
2026-04-21 21:13 44.22404 9.13263 6970 ft 248 kts 142°
2026-04-21 21:13 44.21041 9.14733 7008 ft 248 kts 143°
2026-04-21 21:14 44.19666 9.16175 6967 ft 242 kts 144°
2026-04-21 21:14 44.18386 9.17519 7004 ft 230 kts 144°
2026-04-21 21:14 44.17096 9.18878 7039 ft 229 kts 143°
2026-04-21 21:14 44.15836 9.20203 7100 ft 230 kts 144°
2026-04-21 21:15 44.14562 9.21542 7063 ft 229 kts 143°
2026-04-21 21:15 44.13304 9.22908 7088 ft 230 kts 137°
2026-04-21 21:15 44.12454 9.24768 7073 ft 230 kts 105°
2026-04-21 21:15 44.12349 9.26967 7071 ft 229 kts 77°
2026-04-21 21:16 44.12994 9.28955 7087 ft 225 kts 49°
2026-04-21 21:16 44.14201 9.30283 7059 ft 221 kts 21°
2026-04-21 21:16 44.15686 9.30775 7092 ft 219 kts
2026-04-21 21:16 44.17200 9.30961 7064 ft 219 kts
2026-04-21 21:17 44.18715 9.31174 7091 ft 219 kts
2026-04-21 21:17 44.20224 9.31409 7071 ft 218 kts
2026-04-21 21:17 44.21689 9.31356 7054 ft 203 kts 340°
2026-04-21 21:17 44.22865 9.30430 7096 ft 193 kts 321°
2026-04-21 21:18 44.23904 9.29240 7038 ft 193 kts 320°
2026-04-21 21:18 44.24950 9.28070 6847 ft 193 kts 321°
2026-04-21 21:18 44.25950 9.26993 6654 ft 193 kts 322°
2026-04-21 21:18 44.27048 9.25828 6426 ft 191 kts 322°
2026-04-21 21:19 44.28103 9.24702 6107 ft 192 kts 322°
2026-04-21 21:19 44.29165 9.23569 5737 ft 192 kts 322°
2026-04-21 21:19 44.30232 9.22443 5452 ft 192 kts 323°
2026-04-21 21:19 44.31287 9.21325 5192 ft 192 kts 323°
2026-04-21 21:20 44.32365 9.20187 4934 ft 192 kts 323°
2026-04-21 21:20 44.33393 9.18999 4666 ft 192 kts 314°
2026-04-21 21:20 44.33999 9.17374 4403 ft 192 kts 288°
2026-04-21 21:20 44.34379 9.15587 4174 ft 192 kts 287°
2026-04-21 21:21 44.34762 9.13827 3919 ft 187 kts 287°
2026-04-21 21:21 44.35138 9.12106 3659 ft 183 kts 287°
2026-04-21 21:21 44.35504 9.10434 3451 ft 175 kts 287°
2026-04-21 21:21 44.35838 9.08841 3418 ft 170 kts 286°
2026-04-21 21:22 44.36176 9.07263 3315 ft 169 kts 287°
2026-04-21 21:22 44.36403 9.06225 3196 ft 169 kts 287°
2026-04-21 21:22 44.36746 9.04661 2964 ft 166 kts 287°
2026-04-21 21:22 44.37074 9.03165 2749 ft 153 kts 288°
2026-04-21 21:23 44.37368 9.01829 2522 ft 137 kts 288°
2026-04-21 21:23 44.37646 9.00563 2332 ft 136 kts 288°
2026-04-21 21:23 44.37923 8.99300 2134 ft 135 kts 288°
2026-04-21 21:23 44.38198 8.98046 1946 ft 135 kts 288°
2026-04-21 21:24 44.38473 8.96794 1777 ft 134 kts 288°
2026-04-21 21:24 44.38746 8.95554 1589 ft 133 kts 288°
2026-04-21 21:24 44.39017 8.94316 1381 ft 133 kts 288°
2026-04-21 21:24 44.39284 8.93101 1187 ft 132 kts 288°
2026-04-21 21:25 44.39553 8.91877 995 ft 132 kts 288°
2026-04-21 21:25 44.39822 8.90649 805 ft 132 kts 288°
2026-04-21 21:25 44.40093 8.89415 630 ft 133 kts 287°
2026-04-21 21:25 44.40364 8.88179 432 ft 133 kts 287°
2026-04-21 21:26 44.40635 8.86944 252 ft 133 kts 287°
2026-04-21 21:26 44.40903 8.85706 63 ft 132 kts 285°
2026-04-21 21:26 44.41124 8.84546 26 ft 102 kts 285°
2026-04-21 21:26 44.41232 8.84001 27 ft 14 kts 285°
2026-04-21 21:27 44.41302 8.83796 25 ft 16 kts 325°
2026-04-21 21:27 44.41341 8.83756 25 ft 8 kts 346°
2026-04-21 21:27 44.41383 8.83752 25 ft 0 kts 19°
2026-04-21 21:27 44.41395 8.83758 25 ft 3 kts 19°
2026-04-21 21:28 44.41404 8.83762 28 ft 2 kts 19°
2026-04-21 21:28 44.41425 8.83781 26 ft 5 kts 70°
2026-04-21 21:28 44.41400 8.83924 25 ft 10 kts 106°
2026-04-21 21:29 44.41377 8.84035 25 ft 13 kts 106°
2026-04-21 21:29 44.41351 8.84171 26 ft 16 kts 105°
2026-04-21 21:29 44.41319 8.84323 25 ft 9 kts 95°
2026-04-21 21:29 44.41314 8.84355 25 ft 5 kts 103°
2026-04-21 21:30 44.41334 8.84443 25 ft 13 kts 62°
2026-04-21 21:30 44.41393 8.84551 25 ft 15 kts 53°
2026-04-21 21:30 44.41397 8.84701 27 ft 17 kts 120°
2026-04-21 21:30 44.41378 8.84791 27 ft 6 kts 102°
2026-04-21 21:31 44.41368 8.84854 27 ft 8 kts 101°
2026-04-21 21:31 44.41355 8.84945 28 ft 11 kts 102°
2026-04-21 21:31 44.41340 8.85063 25 ft 14 kts 66°
2026-04-21 21:31 44.41373 8.85089 28 ft 2 kts 21°
2026-04-21 21:32 44.41388 8.85096 25 ft 0 kts 14°
2026-04-21 21:32 44.41392 8.85098 25 ft 0 kts 14°
2026-04-21 21:32 44.41402 8.85101 25 ft 3 kts 14°
2026-04-21 21:32 44.41403 8.85102 25 ft 0 kts 14°